TimeEDT,TemperatureF,Dew PointF,Humidity,Sea Level PressureIn,VisibilityMPH,Wind Direction,Wind SpeedMPH,Gust SpeedMPH,PrecipitationIn,Events,Conditions,WindDirDegrees,DateUTC
12:15 AM,75.2,69.8,83,30.10,10.0,Calm,Calm,-,N/A,,Clear,0,2013-07-07 04:15:00
12:35 AM,73.4,69.8,88,30.10,10.0,Calm,Calm,-,N/A,,Clear,0,2013-07-07 04:35:00
12:55 AM,73.4,69.8,88,30.10,10.0,Calm,Calm,-,N/A,,Clear,0,2013-07-07 04:55:00
1:15 AM,73.4,69.8,88,30.10,10.0,Calm,Calm,-,N/A,,Clear,0,2013-07-07 05:15:00
1:35 AM,73.4,69.8,88,30.10,10.0,Calm,Calm,-,N/A,,Clear,0,2013-07-07 05:35:00
1:55 AM,73.4,69.8,88,30.10,8.0,Calm,Calm,-,N/A,,Clear,0,2013-07-07 05:55:00
2:15 AM,73.4,69.8,88,30.09,8.0,Calm,Calm,-,N/A,,Clear,0,2013-07-07 06:15:00
2:35 AM,71.6,69.8,94,30.09,7.0,Calm,Calm,-,N/A,,Clear,0,2013-07-07 06:35:00
2:55 AM,71.6,69.8,94,30.09,5.0,Calm,Calm,-,N/A,,Clear,0,2013-07-07 06:55:00
3:15 AM,73.4,69.8,88,30.09,10.0,Calm,Calm,-,N/A,,Clear,0,2013-07-07 07:15:00
3:35 AM,73.4,69.8,88,30.09,9.0,Calm,Calm,-,N/A,,Partly Cloudy,0,2013-07-07 07:35:00
3:55 AM,73.4,69.8,88,30.08,10.0,Calm,Calm,-,N/A,,Clear,0,2013-07-07 07:55:00
4:15 AM,71.6,69.8,94,30.08,7.0,Calm,Calm,-,N/A,,Clear,0,2013-07-07 08:15:00
4:35 AM,71.6,68.0,88,30.08,5.0,Calm,Calm,-,N/A,,Clear,0,2013-07-07 08:35:00
4:55 AM,71.6,69.8,94,30.08,5.0,Calm,Calm,-,N/A,,Clear,0,2013-07-07 08:55:00
5:15 AM,73.4,69.8,88,30.08,7.0,Calm,Calm,-,N/A,,Clear,0,2013-07-07 09:15:00
5:35 AM,73.4,69.8,88,30.08,7.0,Calm,Calm,-,N/A,,Clear,0,2013-07-07 09:35:00
5:45 AM,73.4,69.8,88,30.08,10.0,Calm,Calm,-,N/A,,Clear,0,2013-07-07 09:45:00
6:45 AM,77.0,77.0,100,30.08,10.0,Calm,Calm,-,N/A,,Clear,0,2013-07-07 10:45:00
7:45 AM,80.6,71.6,74,30.09,10.0,Calm,Calm,-,N/A,,Clear,0,2013-07-07 11:45:00
8:45 AM,80.6,71.6,74,30.09,10.0,Calm,Calm,-,N/A,,Clear,0,2013-07-07 12:45:00
9:45 AM,84.2,73.4,70,30.08,10.0,NNW,4.6,-,N/A,,Clear,340,2013-07-07 13:45:00
10:45 AM,87.8,73.4,62,30.08,10.0,Calm,Calm,-,N/A,,Clear,0,2013-07-07 14:45:00
11:45 AM,87.8,73.4,62,30.07,10.0,SW,6.9,-,N/A,,Mostly Cloudy,220,2013-07-07 15:45:00
12:45 PM,87.8,73.4,62,30.05,10.0,SSW,6.9,-,N/A,,Mostly Cloudy,210,2013-07-07 16:45:00
1:45 PM,89.6,73.4,59,30.04,10.0,South,12.7,-,N/A,,Scattered Clouds,180,2013-07-07 17:45:00
2:45 PM,89.6,71.6,55,30.02,10.0,SSW,9.2,16.1,N/A,,Scattered Clouds,200,2013-07-07 18:45:00
3:45 PM,89.6,71.6,55,30.01,10.0,SW,6.9,-,N/A,,Scattered Clouds,230,2013-07-07 19:45:00
4:45 PM,87.8,73.4,62,30.00,10.0,SW,6.9,-,N/A,,Partly Cloudy,220,2013-07-07 20:45:00
5:45 PM,84.2,73.4,70,29.99,10.0,SW,4.6,-,N/A,,Partly Cloudy,220,2013-07-07 21:45:00
6:45 PM,84.2,73.4,70,29.99,10.0,SSW,6.9,-,N/A,,Clear,210,2013-07-07 22:45:00
7:45 PM,82.4,73.4,74,29.99,10.0,SSW,4.6,-,N/A,,Clear,210,2013-07-07 23:45:00
9:15 PM,78.8,71.6,78,30.01,10.0,SSW,3.5,-,N/A,,Clear,200,2013-07-08 01:15:00
9:35 PM,78.8,71.6,78,30.01,10.0,Calm,Calm,-,N/A,,Clear,0,2013-07-08 01:35:00
9:55 PM,78.8,71.6,78,30.01,10.0,SSW,3.5,-,N/A,,Clear,210,2013-07-08 01:55:00
10:15 PM,78.8,71.6,78,30.01,10.0,SSW,3.5,-,N/A,,Clear,200,2013-07-08 02:15:00
10:35 PM,78.8,71.6,78,29.99,10.0,Calm,Calm,-,N/A,,Clear,0,2013-07-08 02:35:00
10:55 PM,75.2,71.6,89,29.97,10.0,Calm,Calm,-,N/A,,Clear,0,2013-07-08 02:55:00
11:15 PM,75.2,71.6,89,29.99,10.0,SSW,5.8,-,N/A,,Clear,210,2013-07-08 03:15:00
11:35 PM,77.0,71.6,83,29.99,10.0,Calm,Calm,-,N/A,,Clear,0,2013-07-08 03:35:00
11:55 PM,75.2,71.6,89,30.00,10.0,WSW,3.5,-,N/A,,Clear,250,2013-07-08 03:55:00